TimeCST,TemperatureF,Dew PointF,Humidity,Sea Level PressureIn,VisibilityMPH,Wind Direction,Wind SpeedMPH,Gust SpeedMPH,PrecipitationIn,Events,Conditions,WindDirDegrees,DateUTC
12:55 AM,44.2,41.4,90,30.27,10.0,NNE,3.5,-,N/A,,Clear,20,2012-11-19 06:55:00
1:55 AM,43.2,39.7,88,30.27,10.0,NNW,3.5,-,N/A,,Clear,340,2012-11-19 07:55:00
2:55 AM,42.1,39.9,92,30.26,10.0,Calm,Calm,-,N/A,,Clear,0,2012-11-19 08:55:00
3:55 AM,41.5,40.3,95,30.26,10.0,Calm,Calm,-,N/A,,Clear,0,2012-11-19 09:55:00
4:55 AM,41.5,39.6,93,30.26,10.0,Calm,Calm,-,N/A,,Partly Cloudy,0,2012-11-19 10:55:00
5:55 AM,39.2,37.8,95,30.26,10.0,Calm,Calm,-,N/A,,Clear,0,2012-11-19 11:55:00
6:55 AM,41.0,40.1,97,30.27,10.0,NNW,3.5,-,N/A,,Clear,330,2012-11-19 12:55:00
7:55 AM,49.5,44.6,83,30.28,10.0,North,3.5,-,N/A,,Clear,10,2012-11-19 13:55:00
8:55 AM,56.5,46.2,68,30.27,10.0,NNE,4.6,-,N/A,,Scattered Clouds,20,2012-11-19 14:55:00
9:55 AM,63.1,48.9,60,30.27,10.0,Variable,4.6,-,N/A,,Mostly Cloudy,0,2012-11-19 15:55:00
10:55 AM,66.7,49.5,54,30.26,10.0,North,6.9,-,N/A,,Mostly Cloudy,10,2012-11-19 16:55:00
11:55 AM,68.2,49.3,51,30.24,10.0,Variable,5.8,-,N/A,,Mostly Cloudy,0,2012-11-19 17:55:00
12:55 PM,70.7,47.8,44,30.20,10.0,North,5.8,-,N/A,,Scattered Clouds,350,2012-11-19 18:55:00
1:55 PM,70.3,47.3,44,30.19,10.0,NW,5.8,-,N/A,,Scattered Clouds,310,2012-11-19 19:55:00
2:55 PM,70.3,46.4,42,30.18,10.0,NNW,10.4,-,N/A,,Partly Cloudy,330,2012-11-19 20:55:00
3:55 PM,68.0,46.8,47,30.18,10.0,NNW,9.2,-,N/A,,Partly Cloudy,340,2012-11-19 21:55:00
4:55 PM,61.7,45.7,56,30.17,10.0,North,3.5,-,N/A,,Partly Cloudy,350,2012-11-19 22:55:00
5:55 PM,54.5,45.1,71,30.18,10.0,Calm,Calm,-,N/A,,Partly Cloudy,0,2012-11-19 23:55:00
6:55 PM,49.5,44.1,82,30.21,10.0,Calm,Calm,-,N/A,,Clear,0,2012-11-20 00:55:00
7:55 PM,47.1,43.7,88,30.20,10.0,Calm,Calm,-,N/A,,Clear,0,2012-11-20 01:55:00
8:55 PM,45.3,42.3,89,30.20,10.0,NNW,3.5,-,N/A,,Clear,330,2012-11-20 02:55:00
9:55 PM,42.8,40.6,92,30.21,10.0,Calm,Calm,-,N/A,,Clear,0,2012-11-20 03:55:00
10:55 PM,42.4,40.5,93,30.18,10.0,Calm,Calm,-,N/A,,Clear,0,2012-11-20 04:55:00
11:55 PM,42.1,41.0,96,30.19,10.0,Calm,Calm,-,N/A,,Clear,0,2012-11-20 05:55:00